Regional Weather Roundup
Issued by NWS Cleveland, OH

Home | Current Version | Previous Version | Text Only | Print | Product List | Glossary Off
Versions: 1 2 3 4 5 6 7 8 9 10 11 12 13 14 15 16 17 18 19 20 21 22 23 24 25 26 27 28 29 30 31 32 33 34 35 36 37 38 39 40 41 42 43 44 45 46 47 48 49 50

770
ASUS41 KCLE 241802
RWRCLE
OHIO REGIONAL WEATHER ROUNDUP
NATIONAL WEATHER SERVICE CLEVELAND, OH
200 PM EDT FRI MAR 24 2017

NOTE: "FAIR" INDICATES FEW OR NO CLOUDS BELOW 12,000 FEET WITH NO
SIGNIFICANT WEATHER AND/OR OBSTRUCTIONS TO VISIBILITY.

OHZ001>008-015>018-024>027-034-035-043-044-241900-
   NORTHWEST OHIO

CITY           SKY/WX    TMP DP  RH WIND       PRES   REMARKS
DEFIANCE       SUNNY     71  52  50 SW18G32   30.01F
FINDLAY        SUNNY     72  52  49 SW24G33   30.04F
TOLEDO EXPRESS CLOUDY    69  52  54 SW20G37   30.01F
TOLEDO EXEC    MOSUNNY   70  53  54 SW25G37   30.02F
LIMA           SUNNY     71  54  54 SW22G35   30.07F
$$

OHZ009>014-019>023-028>033-038-089-241900-
   NORTHEAST OHIO

CITY           SKY/WX    TMP DP  RH WIND       PRES   REMARKS
CLE-HOPKINS    CLOUDY    69  49  48 SW25G35   30.07F
CLE-LAKEFRONT  CLOUDY    70  50  49 SW24G33   30.03F
CUY CO. ARPT   NOT AVBL
LORAIN-ELYRIA  MOSUNNY   65  50  58 SW26G32   30.05F
ASHTABULA      CLOUDY    68  49  50 SW17      30.04F
AKRON-CANTON   CLOUDY    69  50  50 SW18G26   30.10F
WOOSTER        CLOUDY    68  51  54 SW21G29   30.09F
MANSFIELD      MOSUNNY   67  51  56 SW21G32   30.10F
YOUNGSTOWN     CLOUDY    66  48  52 SW20G26   30.08F
$$

OHZ042-051>053-060>062-070>072-077>081-241900-
  SOUTHWEST OHIO

CITY           SKY/WX    TMP DP  RH WIND       PRES   REMARKS
CINC-COVINGTON MOSUNNY   73  53  49 S16G23    30.17F
CINC-LUNKEN    SUNNY     73  55  53 SW20G29   30.17F
HAMILTON       MOSUNNY   73  53  49 S12G20    30.17F
DAYTON         PTSUNNY   70  52  52 SW23G30   30.14F
WRIGHT-PAT AFB NOT AVBL
DAYTON GENERAL MOSUNNY   70  51  51 SW21G31   30.15F
WILMINGTON     SUNNY     68  52  56 SW21G28   30.17F
$$

OHZ036-037-039>041-045>050-054>059-063>069-073>076-082>088-241900-
  CENTRAL AND SOUTHEAST OHIO

CITY           SKY/WX    TMP DP  RH WIND       PRES   REMARKS
COLUMBUS       MOSUNNY   70  51  51 SW18G26   30.15F
OSU AIRPORT    MOSUNNY   69  52  54 SW20G30   30.14F
BOLTON FIELD   MOSUNNY   68  54  60 SW23G31   30.16F
RICKENBACK AFB MOSUNNY   68  52  56 SW22G28   30.15F
NEWARK         CLOUDY    67  50  54 SW17G35   30.15F
MARION         CLOUDY    67  50  54 SW21G28   30.11F
LANCASTER      CLOUDY    70  51  51 SW18G28   30.16F
ZANESVILLE     CLOUDY    71  51  49 SW15      30.16F
NEW PHILLY     NOT AVBL
$$




USA.gov is the U.S. government's official web portal to all federal, state and local government web resources and services.